Creek Data

    Home     View Charts     View Raw Data     Messages

ID Distance Battery Voltage Battery Current Internal Temp Internal Humidity External Temp Solar Input rssi snr Time Stamp Record
35158 0.0 4.07 0 64 41 62 5.1 -77 8 03/16/2025 02:45 PM 16912
35157 0.0 4.15 0 66 40 63 5.1 -77 8 03/16/2025 02:30 PM 16911
35156 0.0 4.05 0 66 39 63 5.1 -77 9 03/16/2025 02:15 PM 16910
35155 0.0 4.05 0 65 40 64 5.1 -77 8 03/16/2025 02:01 PM 16909
35154 0.0 4.05 0 65 40 62 5.1 -77 8 03/16/2025 01:45 PM 16908
35153 0.0 4.05 0 65 40 63 5.1 -77 8 03/16/2025 01:30 PM 16907
35152 0.0 4.05 0 66 39 62 5.1 -77 8 03/16/2025 01:15 PM 16906
35151 0.0 4.05 0 67 38 64 5.1 -78 8 03/16/2025 01:00 PM 16905
35150 0.0 4.05 0 65 39 62 5.1 -80 7 03/16/2025 12:45 PM 16904
35149 15.3 4.14 0 64 39 63 5.1 -78 7 03/16/2025 12:30 PM 16903
35148 0.0 4.05 0 66 36 62 5.1 -77 8 03/16/2025 12:00 PM 16901
35147 0.0 4.05 0 64 36 62 5.1 -78 8 03/16/2025 11:45 AM 16900
35146 0.0 4.05 0 62 36 61 5.1 -79 8 03/16/2025 11:30 AM 16899
35145 0.0 4.05 0 61 37 61 5.1 -78 8 03/16/2025 11:15 AM 16898
35144 0.0 4.05 0 59 37 59 5.1 -77 9 03/16/2025 11:00 AM 16897
35143 0.0 4.05 0 58 37 59 5.1 -78 8 03/16/2025 10:45 AM 16896
35142 0.0 4.04 0 57 36 58 5.1 -76 9 03/16/2025 10:30 AM 16895
35141 0.0 4.05 0 56 36 57 5.1 -79 9 03/16/2025 10:15 AM 16894
35140 0.0 4.04 0 54 36 56 5.1 -79 9 03/16/2025 10:01 AM 16893
35139 0.0 4.04 0 52 36 55 5.1 -80 8 03/16/2025 09:46 AM 16892
35138 0.0 4.04 0 51 36 53 5.1 -79 8 03/16/2025 09:30 AM 16891
35137 0.0 4.04 0 49 36 52 5.1 -80 9 03/16/2025 09:15 AM 16890
35136 15.2 4.05 0 47 36 51 5.1 -80 7 03/16/2025 09:00 AM 16889
35135 15.1 4.05 0 45 36 50 5 -80 7 03/16/2025 08:45 AM 16888
35134 15.1 4.05 0 43 37 48 5.1 -79 8 03/16/2025 08:30 AM 16887